Date String (YYYY-MM-DD hh:mm:ss) UTC,Instrument flags,Ambient pressure (hPa),Sample flow (lpm),Bypass flow (lpm),Sample temperature (°C),Ambient temperature (°C),ASC tube jacket temperature (°C),LED temperature (°C),Box temperature (°C),Sample RH (%),Span deviation,Mass concentration (μg/m³),Mass concentration (μg/m³),Mass concentration (μg/m³)
DateTimeUTC,F1_M11,P_M11,Q1_M11,Q2_M11,T1_M11,T2_M11,T3_M11,T4_M11,T5_M11,U1_M11,ZSPAN_M11,X0_M11,X2_M11,X1_M11
2021-08-27 09:00:00,,0827.6,5.00,0.00,29.8,28.7,00.0,38.9,31.4,20.3,0000.0,0002.91,0001.92,0001.66
2021-08-27 09:01:00,,0827.6,5.00,0.00,29.6,26.8,00.0,38.8,30.9,20.3,0000.0,0002.89,0001.93,0001.68
2021-08-27 09:02:00,,0827.7,5.01,0.00,29.5,26.1,00.0,38.8,30.7,20.5,0000.0,0002.66,0001.91,0001.69
2021-08-27 09:03:00,,0827.6,5.00,0.00,29.4,26.4,00.0,38.8,30.7,20.6,0000.0,0002.59,0001.89,0001.67
2021-08-27 09:04:00,,0827.5,5.01,0.00,29.4,26.8,00.0,38.7,30.8,20.5,0000.0,0002.53,0001.86,0001.63
2021-08-27 09:05:00,,0827.5,5.01,0.00,29.3,27.1,00.0,38.7,30.9,20.2,0000.0,0002.44,0001.82,0001.61
2021-08-27 09:06:00,,0827.6,5.00,0.00,29.4,27.4,00.0,38.6,31.0,20.0,0000.0,0002.43,0001.82,0001.60
2021-08-27 09:07:00,,0827.5,5.00,0.00,29.4,27.7,00.0,38.6,31.0,20.4,0000.0,0002.43,0001.82,0001.58
2021-08-27 09:08:00,,0827.5,5.00,0.00,29.4,27.9,00.0,38.6,31.1,20.6,0000.0,0002.35,0001.77,0001.55
2021-08-27 09:09:00,,0827.4,5.00,0.00,29.4,28.0,00.0,38.6,31.1,20.5,0000.0,0002.30,0001.75,0001.53
2021-08-27 09:10:00,,0827.4,4.99,0.00,29.4,28.1,00.0,38.6,31.1,19.8,0000.0,0002.72,0001.80,0001.57
2021-08-27 09:11:00,,0827.4,5.02,0.00,29.4,28.2,00.0,38.6,31.2,20.0,0000.0,0003.22,0001.83,0001.60
2021-08-27 09:12:00,,0827.4,5.00,0.00,29.4,28.3,00.0,38.6,31.2,20.0,0000.0,0004.23,0001.87,0001.60
2021-08-27 09:13:00,,0827.4,5.00,0.00,29.5,28.4,00.0,38.6,31.2,19.6,0000.0,0004.85,0001.92,0001.62
2021-08-27 09:14:00,,0827.4,5.01,0.00,29.5,28.5,00.0,38.6,31.3,19.6,0000.0,0004.88,0001.97,0001.67
2021-08-27 09:15:00,,0827.4,4.99,0.00,29.5,28.6,00.0,38.6,31.3,19.3,0000.0,0004.91,0002.02,0001.73
2021-08-27 09:16:00,,0827.3,4.99,0.00,29.5,28.6,00.0,38.6,31.4,19.4,0000.0,0004.99,0002.10,0001.80
2021-08-27 09:17:00,,0827.4,5.00,0.00,29.6,28.7,00.0,38.6,31.4,19.5,0000.0,0005.06,0002.15,0001.85
2021-08-27 09:18:00,,0827.4,5.00,0.00,29.6,28.7,00.0,38.7,31.4,19.6,0000.0,0005.19,0002.20,0001.90
2021-08-27 09:19:00,,0827.3,5.00,0.00,29.6,28.8,00.0,38.7,31.4,19.6,0000.0,0005.30,0002.28,0001.98
2021-08-27 09:20:00,,0827.2,5.01,0.00,29.6,28.8,00.0,38.7,31.4,19.6,0000.0,0005.35,0002.32,0002.04
2021-08-27 09:21:00,,0827.2,5.00,0.00,29.7,28.8,00.0,38.7,31.4,19.5,0000.0,0005.23,0002.38,0002.08
2021-08-27 09:22:00,,0827.2,5.00,0.00,29.7,28.8,00.0,38.7,31.5,19.4,0000.0,0004.80,0002.42,0002.10
2021-08-27 09:23:00,,0827.2,5.00,0.00,29.7,28.9,00.0,38.7,31.5,19.4,0000.0,0004.10,0002.44,0002.14
2021-08-27 09:24:00,,0827.2,5.00,0.00,29.7,28.9,00.0,38.7,31.5,19.4,0000.0,0003.38,0002.46,0002.18
2021-08-27 09:25:00,,0827.2,4.99,0.00,29.7,28.9,00.0,38.8,31.5,19.4,0000.0,0003.43,0002.48,0002.19
2021-08-27 09:26:00,,0827.2,4.99,0.00,29.7,28.9,00.0,38.8,31.5,19.3,0000.0,0003.48,0002.50,0002.22
2021-08-27 09:27:00,,0827.2,5.00,0.00,29.7,28.9,00.0,38.8,31.5,19.4,0000.0,0003.50,0002.49,0002.22
2021-08-27 09:28:00,,0827.2,5.01,0.00,29.7,28.9,00.0,38.8,31.5,19.5,0000.0,0003.44,0002.47,0002.23
2021-08-27 09:29:00,,0827.2,4.99,0.00,29.7,28.9,00.0,38.8,31.5,19.4,0000.0,0003.39,0002.49,0002.26
2021-08-27 09:30:00,,0827.2,5.00,0.00,29.8,28.9,00.0,38.8,31.5,19.3,0000.0,0003.40,0002.52,0002.30
2021-08-27 09:31:00,,0827.1,5.00,0.00,29.8,28.9,00.0,38.8,31.5,19.4,0000.0,0003.42,0002.55,0002.33
2021-08-27 09:32:00,,0827.2,4.99,0.00,29.8,28.9,00.0,38.8,31.5,19.3,0000.0,0003.33,0002.53,0002.33
2021-08-27 09:33:00,,0827.2,5.00,0.00,29.8,28.9,00.0,38.8,31.5,19.4,0000.0,0003.33,0002.55,0002.36
2021-08-27 09:34:00,,0827.2,4.99,0.00,29.8,28.9,00.0,38.9,31.6,19.5,0000.0,0003.32,0002.55,0002.36
2021-08-27 09:35:00,,0827.2,5.01,0.00,29.8,29.0,00.0,38.9,31.6,19.5,0000.0,0003.30,0002.54,0002.36
2021-08-27 09:36:00,,0827.2,5.00,0.00,29.8,29.0,00.0,38.9,31.5,19.5,0000.0,0003.31,0002.56,0002.36
2021-08-27 09:37:00,,0827.2,5.01,0.00,29.8,29.0,00.0,38.9,31.5,19.4,0000.0,0003.29,0002.56,0002.36
2021-08-27 09:38:00,,0827.2,5.00,0.00,29.8,29.0,00.0,38.9,31.5,19.4,0000.0,0003.25,0002.58,0002.37
2021-08-27 09:39:00,,0827.2,5.01,0.00,29.8,29.0,00.0,38.9,31.6,19.3,0000.0,0003.30,0002.61,0002.38
2021-08-27 09:40:00,,0827.2,5.01,0.00,29.8,29.0,00.0,38.9,31.6,19.3,0000.0,0003.27,0002.61,0002.39
2021-08-27 09:41:00,,0827.2,5.00,0.00,29.8,29.1,00.0,38.9,31.6,19.3,0000.0,0003.26,0002.61,0002.38
2021-08-27 09:42:00,,0827.2,5.01,0.00,29.9,29.1,00.0,38.9,31.6,19.3,0000.0,0003.31,0002.62,0002.39
2021-08-27 09:43:00,,0827.2,4.99,0.00,29.9,29.1,00.0,38.9,31.7,19.3,0000.0,0003.44,0002.66,0002.40
2021-08-27 09:44:00,,0827.2,5.00,0.00,29.9,29.1,00.0,38.9,31.7,19.3,0000.0,0003.52,0002.67,0002.41
2021-08-27 09:45:00,,0827.2,5.00,0.00,29.9,29.1,00.0,39.0,31.7,19.4,0000.0,0003.48,0002.67,0002.42
2021-08-27 09:46:00,,0827.2,5.02,0.00,29.9,28.6,00.0,39.0,31.6,19.3,0000.0,0003.52,0002.70,0002.46
2021-08-27 09:47:00,,0827.2,4.99,0.00,29.8,26.6,00.0,38.9,31.2,19.4,0000.0,0003.51,0002.72,0002.50
2021-08-27 09:48:00,,0827.1,5.01,0.00,29.7,26.2,00.0,38.9,31.0,19.5,0000.0,0003.52,0002.73,0002.53
2021-08-27 09:49:00,,0827.2,4.99,0.00,29.6,26.5,00.0,38.9,31.0,19.6,0000.0,0003.53,0002.75,0002.55
2021-08-27 09:50:00,,0827.2,5.00,0.00,29.6,26.9,00.0,38.8,31.1,19.6,0000.0,0003.61,0002.78,0002.56
2021-08-27 09:51:00,,0827.2,4.99,0.00,29.5,27.3,00.0,38.8,31.1,19.7,0000.0,0003.70,0002.82,0002.58
2021-08-27 09:52:00,,0827.2,5.01,0.00,29.5,27.6,00.0,38.8,31.1,19.8,0000.0,0004.21,0002.85,0002.61
2021-08-27 09:53:00,,0827.2,5.00,0.00,29.5,27.8,00.0,38.7,31.2,19.8,0000.0,0004.21,0002.85,0002.62
2021-08-27 09:54:00,,0827.2,5.00,0.00,29.5,28.0,00.0,38.7,31.2,19.8,0000.0,0004.31,0002.86,0002.65
2021-08-27 09:55:00,,0827.2,4.99,0.00,29.6,28.1,00.0,38.7,31.2,19.8,0000.5,0004.16,0002.83,0002.65
2021-08-27 09:56:00,,0827.2,5.00,0.00,29.6,28.2,00.0,38.7,31.3,19.7,0001.1,0004.25,0002.88,0002.67
2021-08-27 09:57:00,,0827.2,5.01,0.00,29.6,28.4,00.0,38.7,31.3,19.7,0001.3,0004.31,0002.91,0002.68
2021-08-27 09:58:00,,0827.2,5.00,0.00,29.6,28.5,00.0,38.7,31.3,19.8,0001.8,0004.50,0002.95,0002.69
2021-08-27 09:59:00,,0827.2,4.99,0.00,29.6,28.5,00.0,38.7,31.4,19.8,0002.0,0004.69,0002.98,0002.69
